RH
89 88 88 87 87 86 86 87 87 87 88 89 91 92 92 92 87 39 18 25 48 84 78 37 45 37 58 71 58 39 50 37 29 29 28 23 25 22 23 34 34 32 38 38 35
87 87 85 85 86 85 86 86 87 86 88 90 91 92 92 92 55 19 28 57 73 84 38 30 50 44 60 48 39 48 38 29 24 21 23 23 24 23 26 31 35 38 35 34 34
85 85 85 85 85 84 85 86 86 86 88 89 91 92 92 91 42 10 61 57 72 82 32 25 22 23 38 39 37 21 32 22 20 20 18 22 24 20 28 36 35 41 40 36 35
84 85 85 84 84 84 84 85 86 86 88 89 91 92 90 64 21 19 64 61 64 51 27 23 23 32 55 35 31 22 18 20 22 22 22 24 21 25 25 28 31 33 34 35 35
84 84 85 85 84 84 85 86 87 87 88 88 91 89 61 37 15 24 69 65 43 26 21 20 22 24 36 39 25 27 19 20 19 20 19 19 22 23 25 28 29 31 32 34 33
84 85 85 84 85 86 87 88 88 88 86 86 89 88 60 22 8 25 31 33 16 16 17 16 18 20 31 29 32 32 19 20 20 25 19 23 23 24 24 26 29 30 33 31 30
84 84 85 85 86 87 88 88 88 88 86 85 85 50 30 20 8 9 11 8 11 7 8 10 11 12 27 36 31 41 55 32 21 26 29 25 30 28 25 25 28 29 29 28 29
84 84 84 85 86 87 88 89 88 85 86 84 77 50 34 10 8 6 6 6 5 9 8 11 10 11 19 34 41 60 74 73 31 28 36 40 50 27 25 26 31 29 28 28 29
84 84 84 85 86 87 90 88 86 81 82 80 74 48 27 17 6 5 5 4 5 7 12 8 9 13 16 38 53 59 73 62 44 28 34 36 45 27 24 26 30 29 28 29 31
84 84 84 85 86 88 90 84 72 71 68 36 32 40 25 14 6 5 4 4 6 6 8 10 13 16 20 36 53 56 56 48 47 32 33 51 40 27 25 25 28 29 33 34 34
84 84 84 84 85 88 87 51 30 39 33 27 29 20 13 8 7 7 6 5 6 8 11 11 16 20 17 26 27 28 42 49 42 25 37 46 49 29 26 26 28 32 37 35 33
85 84 85 85 86 85 88 49 23 20 27 17 15 14 11 9 10 8 8 9 10 10 9 11 16 12 10 24 25 35 44 55 31 24 32 36 39 33 28 27 28 29 32 33 34
86 86 86 87 85 70 35 25 16 17 29 19 14 13 12 8 10 10 8 8 9 9 7 11 9 8 9 20 23 34 38 40 29 19 27 33 51 69 50 39 29 28 28 28 32
87 86 86 88 58 32 28 17 16 17 37 19 14 10 8 8 10 6 6 7 8 8 7 8 6 6 9 10 18 29 26 28 27 24 24 27 77 73 52 37 40 30 32 29 29
87 86 87 90 63 45 21 18 15 21 46 13 12 9 9 10 10 9 6 6 9 8 8 8 6 6 7 8 8 12 20 27 14 19 22 20 51 47 56 54 42 32 28 30 28
88 85 86 52 62 45 29 20 20 40 34 13 11 13 12 11 9 6 7 7 7 8 7 7 5 6 6 6 6 7 10 13 17 20 28 18 38 50 45 46 44 39 33 28 28
88 85 86 54 36 17 20 24 45 38 13 12 14 10 11 12 9 7 9 12 13 12 11 8 7 5 6 8 7 10 13 26 30 29 30 39 48 54 36 26 28 30 29 35 28
87 86 74 51 46 32 26 40 50 21 14 10 10 10 11 9 9 8 11 13 10 9 10 13 12 7 6 7 10 9 15 24 29 31 24 34 47 36 26 26 26 24 27 31 28
85 42 42 32 37 31 40 48 31 19 12 10 12 14 14 8 8 9 11 11 7 6 10 10 10 6 4 6 6 8 10 9 14 27 15 34 41 27 26 29 30 33 25 30 28
77 52 31 18 28 29 47 46 26 17 13 10 16 14 16 12 10 11 12 9 8 6 5 6 11 7 5 5 6 6 7 11 14 22 20 24 32 37 30 28 29 29 30 30 28
66 48 21 15 20 42 45 32 19 12 11 14 13 13 16 15 13 10 10 8 6 6 4 6 8 6 7 8 8 9 8 20 11 16 17 25 31 23 24 21 23 26 20 25 22
48 43 21 18 38 39 36 26 29 14 12 14 12 12 16 15 17 14 12 10 6 6 9 7 7 11 10 6 5 6 7 8 19 16 19 18 22 17 19 20 19 20 20 27 37
58 40 20 21 40 28 21 16 14 13 13 16 12 10 10 15 24 17 14 8 6 8 12 24 12 13 11 8 8 7 7 19 7 8 10 22 18 15 15 16 18 23 28 42 43
59 46 25 33 28 25 24 25 22 10 12 12 13 13 16 20 18 20 14 9 6 8 34 22 10 12 15 16 10 11 8 7 10 13 17 17 24 18 10 16 27 30 27 33 44
58 40 37 41 33 26 18 21 19 20 12 14 18 15 19 27 23 21 22 20 10 32 15 9 13 31 11 8 6 7 6 6 8 10 22 14 22 25 24 27 30 31 32 29 30
57 46 39 40 26 24 29 18 15 14 19 18 20 13 16 22 30 35 30 31 26 16 14 10 14 29 17 11 8 7 7 5 7 7 8 9 31 31 23 32 36 32 33 32 34
53 44 48 50 29 23 20 18 20 16 18 16 15 19 20 26 24 24 24 24 23 27 25 12 17 21 22 16 13 14 9 9 10 7 7 10 28 33 27 25 34 39 35 36 46
Wind_Speed
18 19 19 20 21 20 20 20 19 19 19 21 22 18 16 19 23 3 5 4 4 13 7 14 21 21 17 13 12 11 1 8 11 9 10 15 20 19 20 21 23 12 17 10 10
20 19 20 20 20 21 21 20 20 20 19 19 20 18 14 15 5 9 5 8 5 13 5 6 18 13 6 4 8 7 6 10 7 14 15 13 12 15 15 19 18 22 17 10 9
21 21 21 21 21 21 21 22 21 21 20 19 18 17 14 12 4 8 6 6 6 8 3 4 4 12 7 4 6 4 5 11 16 17 13 16 15 14 12 18 24 26 24 17 14
20 21 22 23 23 22 22 22 22 21 20 18 16 15 13 4 2 2 9 9 9 6 7 4 5 6 7 5 15 7 9 9 11 16 13 12 15 10 13 14 26 25 22 18 16
21 21 22 23 24 24 23 22 21 21 19 18 14 11 5 3 10 5 6 5 7 6 6 9 11 9 6 6 4 2 11 6 9 7 9 16 9 13 16 25 24 24 21 16 15
21 22 23 23 24 25 24 23 22 21 20 16 13 10 3 5 5 11 8 7 8 8 7 12 8 17 5 3 16 20 13 10 7 4 8 15 12 11 16 21 24 22 19 17 16
22 23 24 25 25 25 25 24 23 22 19 14 10 5 5 15 9 2 8 7 7 8 9 16 9 6 4 15 10 26 16 13 8 7 3 9 10 11 12 18 19 18 16 14 12
23 24 25 26 26 26 26 26 26 23 17 11 4 4 9 6 12 7 7 10 10 8 10 10 10 7 15 2 12 28 15 8 12 10 6 10 4 13 14 16 14 14 13 12 10
23 24 26 27 27 27 27 31 27 20 10 5 3 4 9 2 5 10 8 9 9 7 5 9 8 5 3 13 9 6 7 14 18 7 8 5 9 13 15 15 14 13 11 10 8
23 24 25 27 28 27 30 29 10 8 5 6 8 5 8 8 7 11 9 10 7 6 6 6 4 5 2 2 4 9 5 5 5 8 9 16 7 17 16 17 16 12 9 8 8
24 25 26 27 29 23 18 9 5 2 5 8 6 7 19 6 5 5 4 6 7 6 6 8 3 8 12 8 10 14 13 5 13 17 9 24 5 16 16 15 13 11 9 9 9
24 25 26 29 30 27 5 3 6 6 11 14 19 19 20 7 2 7 6 5 6 7 7 5 7 15 12 8 12 20 20 15 13 6 8 12 13 11 15 17 19 14 13 11 9
24 25 27 31 34 9 6 12 6 8 5 12 14 11 12 7 8 11 11 9 8 9 10 9 10 15 16 10 14 14 18 15 11 9 4 11 3 11 2 4 11 15 19 16 14
24 25 25 31 5 8 6 9 8 7 4 8 6 7 7 7 8 16 10 10 7 10 11 8 14 14 11 10 13 9 17 19 26 6 5 11 3 6 6 7 5 14 17 17 17
24 23 23 10 9 6 8 15 10 3 5 9 6 3 7 8 0 5 11 7 10 11 5 13 11 8 10 9 10 9 28 31 15 3 2 3 8 6 4 7 13 14 17 17 20
25 22 20 2 4 11 15 15 6 1 8 7 7 8 5 7 12 7 5 5 7 10 11 9 10 5 7 7 7 6 7 7 3 3 1 10 11 3 10 3 11 9 9 14 20
26 28 10 6 7 8 12 6 1 4 10 8 7 11 11 9 8 8 7 5 6 4 7 10 11 9 1 4 9 3 5 5 6 5 7 9 7 12 19 25 25 20 13 11 17
30 32 8 10 9 10 5 3 4 10 10 2 4 4 8 10 11 9 8 6 9 9 6 6 9 7 5 6 3 7 6 7 7 5 5 4 5 7 16 9 15 12 7 8 11
29 4 5 6 12 7 2 4 6 5 15 9 4 3 4 7 8 9 11 10 10 11 8 5 12 10 11 6 11 11 5 12 2 5 5 4 4 6 7 5 6 8 8 9 10
6 5 7 11 13 6 2 6 7 11 16 10 7 7 9 7 7 4 9 11 11 14 10 12 7 10 13 7 7 10 8 5 5 3 5 1 6 7 10 7 12 17 19 18 15
4 4 3 13 9 2 5 7 11 17 18 2 8 12 13 9 7 6 6 7 14 10 15 10 6 17 3 6 8 1 7 2 3 5 7 3 7 8 17 16 19 18 31 30 25
6 4 6 6 3 4 8 8 7 19 16 1 5 11 10 12 8 9 4 6 10 9 5 10 3 6 8 8 11 9 10 8 7 11 4 6 6 7 19 16 18 19 10 12 12
6 5 5 5 5 8 13 18 19 20 16 3 9 8 12 9 7 8 9 5 11 6 4 4 3 4 13 9 4 9 9 6 6 3 8 2 6 4 8 7 10 9 20 15 21
5 5 4 3 7 12 13 14 16 16 6 11 10 10 9 8 8 7 10 9 9 6 4 3 5 9 8 10 1 5 7 9 6 3 6 4 3 3 11 8 8 9 17 21 20
4 5 5 3 4 10 13 16 19 17 8 7 7 10 8 6 9 10 5 9 3 8 2 4 5 3 8 9 12 8 14 12 8 10 5 4 5 5 9 10 9 9 8 12 14
4 6 8 10 12 15 12 11 16 18 9 7 8 13 10 11 5 6 10 8 6 4 4 2 6 5 8 10 11 13 7 13 11 11 8 6 2 6 8 11 7 12 10 8 7
7 7 6 7 8 10 10 12 14 11 14 14 7 5 7 10 7 7 6 6 12 8 6 5 3 2 7 9 9 7 6 6 4 9 10 7 9 6 5 9 9 9 11 10 14
Wind_Direction
350 347 343 342 339 337 335 332 330 327 322 317 318 322 323 320 312 193 252 202 163 157 103 119 87 92 150 195 241 270 101 112 127 126 98 84 97 110 125 130 147 175 141 152 131
347 343 342 339 336 334 332 330 327 326 324 319 316 318 324 328 296 269 222 170 157 134 179 190 115 116 285 213 208 206 94 125 124 115 111 110 117 134 145 152 126 127 133 144 134
344 341 338 337 334 332 330 327 326 326 324 323 318 317 320 319 300 248 139 184 151 165 277 304 197 41 278 293 280 64 96 91 111 115 131 148 157 155 140 139 147 140 146 164 152
342 339 336 334 331 330 328 326 323 324 323 323 319 317 320 270 262 101 176 178 148 212 222 230 210 161 142 205 243 105 86 97 93 132 152 156 147 159 153 137 135 140 150 165 166
340 337 334 332 329 327 325 323 321 319 320 320 320 326 313 245 253 153 167 184 155 188 227 246 261 169 184 297 90 25 113 88 115 104 136 111 107 98 122 128 133 140 153 167 176
339 336 332 330 327 325 323 320 317 314 315 315 319 324 257 255 205 153 181 161 241 189 256 259 262 139 172 214 42 359 125 151 151 162 78 111 112 105 119 131 138 146 163 175 186
338 335 331 329 326 324 320 317 312 307 304 305 311 294 264 241 313 187 204 229 221 207 260 273 313 36 217 68 56 34 30 315 138 86 20 103 110 120 123 130 140 151 168 179 193
335 332 330 328 326 323 320 314 304 296 293 281 281 269 253 239 238 250 262 281 265 221 232 288 306 333 87 351 57 64 352 343 338 108 316 80 136 134 134 137 146 160 178 181 192
332 330 328 326 325 323 320 311 299 286 247 253 243 224 270 260 223 233 225 252 253 258 273 283 296 289 25 130 87 130 199 235 280 215 157 164 156 149 147 148 160 170 181 182 193
331 329 327 324 323 325 321 300 285 313 186 229 259 290 270 248 240 217 218 238 255 229 230 233 279 265 28 123 154 166 171 264 304 236 126 14 194 155 163 161 168 171 169 174 170
330 328 325 323 320 327 339 339 336 20 225 246 217 253 290 220 100 331 278 217 274 285 204 232 202 247 245 209 162 78 95 349 250 244 117 161 225 162 168 165 169 169 161 165 170
329 327 325 324 318 318 279 263 50 268 297 264 264 264 266 284 311 224 222 230 232 251 231 260 213 245 259 152 183 118 120 186 257 210 106 128 234 226 175 178 170 173 166 167 178
328 328 328 324 318 299 245 281 298 332 277 288 234 229 237 222 231 254 169 230 217 233 252 197 228 236 243 179 201 152 165 214 216 191 138 128 78 297 235 20 187 177 171 169 174
327 327 330 331 326 342 284 9 341 324 297 265 185 212 209 176 245 229 204 179 232 230 232 236 239 246 245 243 191 201 163 264 236 151 194 147 207 242 248 261 222 204 173 174 173
323 326 328 323 306 295 329 329 314 321 315 161 159 111 170 178 228 201 224 194 235 245 218 248 248 255 250 225 242 255 163 204 217 358 77 211 85 284 39 291 266 202 180 177 178
320 321 334 330 216 254 296 287 304 277 241 178 136 178 195 207 261 203 176 160 215 262 278 255 270 287 232 277 281 300 340 336 318 159 271 257 122 224 166 120 273 244 173 189 177
318 312 301 291 241 342 326 305 293 231 315 161 180 163 178 204 240 151 178 207 218 216 272 283 264 282 274 24 334 343 345 338 339 354 225 118 96 210 201 200 197 222 204 182 187
319 309 238 207 228 258 289 315 254 271 273 239 105 192 168 193 215 213 181 207 215 245 211 221 292 244 259 176 213 268 198 164 235 241 258 105 140 264 220 207 226 245 195 193 190
316 288 234 228 212 245 268 244 230 242 333 351 358 202 254 234 183 190 185 189 203 218 210 218 250 233 206 172 161 264 281 234 246 304 29 155 227 357 214 217 253 300 258 249 209
313 284 253 229 165 200 218 254 290 319 302 355 343 315 325 253 174 214 194 203 210 198 192 257 303 272 229 188 203 170 236 358 344 251 284 323 173 204 220 185 178 226 237 229 243
260 278 163 163 168 223 234 241 282 280 289 351 303 314 316 320 233 220 234 223 201 204 196 221 184 280 98 153 173 189 274 272 167 153 188 171 253 201 191 201 180 222 225 221 216
314 273 152 142 173 209 234 259 269 284 290 31 289 291 299 310 324 291 230 258 181 170 207 208 177 262 224 217 179 191 208 193 127 279 245 165 252 178 191 210 163 210 160 144 89
307 280 241 175 240 237 257 250 248 271 278 291 273 255 279 291 333 328 341 340 68 71 69 328 259 305 327 331 201 180 228 221 217 224 256 170 231 186 122 134 156 140 138 115 128
286 290 232 178 233 272 296 291 285 246 246 285 303 302 292 316 306 296 305 292 131 126 142 63 238 172 209 223 119 219 202 229 198 192 249 254 81 16 147 173 110 111 125 148 161
244 267 19 304 294 293 247 270 292 301 215 201 295 293 308 314 299 303 337 358 256 133 160 131 267 257 262 274 281 254 189 214 229 240 163 222 147 153 142 127 127 122 108 129 169
300 344 341 299 297 297 292 233 268 286 302 194 206 251 242 253 276 333 358 18 327 338 186 260 270 292 301 297 291 293 234 211 200 229 257 257 265 213 155 125 150 145 136 144 121
349 338 307 295 306 317 292 295 289 278 297 300 231 245 295 30 8 326 314 304 295 302 314 209 201 282 269 278 297 317 255 289 234 203 199 229 191 205 86 140 161 160 150 150 125